Regional Weather Roundup
Issued by NWS Albany, NY

Home | Current Version | Previous Version | Graphics & Text | Print | Product List | Glossary On
Versions: 1 2 3 4 5 6 7 8 9 10 11 12 13 14 15 16 17 18 19 20 21 22 23 24 25 26 27 28 29 30 31 32 33 34 35 36 37 38 39 40 41 42 43 44 45 46 47 48 49 50
000
ASUS41 KALY 200910
RWRALY

NEW YORK STATE HOURLY WEATHER ROUNDUP
NATIONAL WEATHER SERVICE ALBANY NY
500 AM EDT SAT SEP 20 2014

NOTE: "FAIR" INDICATES FEW OR NO CLOUDS BELOW 12,000 FEET WITH NO
SIGNIFICANT WEATHER AND/OR NO OBSTRUCTIONS TO VISIBILITY.

NYZ032-033-038>043-046>054-057>066-NYZ062>081-201000-
EAST


CITY           SKY/WX    TMP DP  RH WIND       PRES   REMARKS
ALBANY         PTCLDY    53  44  71 S9G20     30.27F
GLENS FALLS    CLOUDY    47  43  86 S3        30.27F
POUGHKEEPSIE   CLOUDY    53  48  83 CALM      30.31F
NEWBURGH       MOCLDY    52  48  87 CALM      30.32F
MONTGOMERY     MOCLDY    50  47  89 CALM      30.31F
WHITE PLAINS   CLOUDY    54  50  86 CALM      30.33R
ISLIP          CLEAR     52  48  86 CALM      30.31F
NEW YORK CITY  MOCLDY    60  52  74 E5        30.32R
CENTRAL PARK   PTCLDY    58  51  78 CALM      30.35R
$$

NYZ005>009-017-018-044>046-055-056-201000-
CENTRAL


CITY           SKY/WX    TMP DP  RH WIND       PRES   REMARKS
FULTON         PTCLDY    58  52  80 S9        30.12F
SYRACUSE       PTCLDY    61  52  72 S13G21    30.14F
ROME           CLOUDY    55  49  80 E8        30.21S
ELMIRA         CLOUDY    62  55  77 S9        30.18F
BINGHAMTON     CLOUDY    55  51  86 S10       30.23S
MONTICELLO     CLOUDY    48  48 100 E3        30.32S
$$

NYZ026>034-041>043-201000-
NORTH


CITY           SKY/WX    TMP DP  RH WIND       PRES   REMARKS
WATERTOWN      PTCLDY    59  48  67 S14G24    30.08F
FORT DRUM      NOT AVBL
MASSENA        MOCLDY    43  41  93 CALM      30.09F
SARANAC LAKE   CLOUDY    49  44  83 SW9       30.14F
PLATTSBURGH    MOCLDY    39  38  96 CALM      30.18F
$$

NYZ001>004-010>016-019>021-201000-
WEST


CITY           SKY/WX    TMP DP  RH WIND       PRES   REMARKS
NIAGARA FALLS  PTCLDY    60  55  83 S10       30.02F
BUFFALO        PTCLDY    63  53  70 S14       30.05S
DUNKIRK        MOCLDY    62  54  74 S14G33    30.05F
JAMESTOWN      PTCLDY    55  52  88 S10       30.11F
WELLSVILLE     CLOUDY    59  53  80 S12G21    30.16F
ROCHESTER      PTCLDY    56  52  86 CALM      30.08F
PENN YAN       MOCLDY    61  54  77 S10       30.15R
$$

             KEY
       WCI = WIND CHILL INDEX
       VSB = VISIBILITY
       HX  = HEAT INDEX
$$


USA.gov is the U.S. government's official web portal to all federal, state and local government web resources and services.